{"data":{"norad_id":64806,"epoch":"2026-09-20T13:49:34.932000Z","epoch_age_seconds":121079,"freshness":"FRESH","line1":"1 64806U 25150S   26263.57609875  .00001704  00000+0  15054-3 0  9992","line2":"2 64806  70.0027   2.8839 0003348 269.1934  90.8841 14.98335264 65718","mean_motion":14.98335264,"eccentricity":0.0003348,"inclination_deg":70.0027,"raan_deg":2.8839,"arg_perigee_deg":269.1934,"mean_anomaly_deg":90.8841,"bstar":0.00015054,"rev_number":6571,"period_min":96.10666147947,"perigee_km":569.71269337644,"apogee_km":574.36653163617,"semimajor_km":6950.1766125063,"source":"CELESTRAK","updated_at":"2026-09-21T09:00:35.445937Z"}}